Location: Northam
(31.6525°S, 116.6655°E)
Time: 19:10:50
(UTC+08:00)

AAUSAT CUBESAT 2 - Pass Details

Date: 03 August 2021
Orbit: 572 x 587 km, 97.5° (Epoch: 18 September)

Event Time Altitude Azimuth Distance (km) Brightness Sun altitude
Rises 05:19:51 0° 356° (N) 2,778 ? -21.5°
Reaches altitude 10° 05:22:05 10° 347° (NNW) 1,891 ? -21.1°
Enters shadow 05:23:52 23° 332° (NNW) 1,264 ? -20.7°
